Miscellaneous Local Product
Issued by NWS Hastings, NE

Home | Current Version | Previous Version | Graphics & Text | Print | Product List | Glossary On
Versions: 1 2 3 4 5 6 7 8 9 10 11 12 13 14 15 16 17 18 19 20 21 22 23 24 25 26 27 28 29 30 31 32 33 34 35 36 37 38 39 40 41 42 43 44 45 46 47 48 49 50
000
AXUS43 KGID 150902
MISGRI

GID CWA HOURLY WEATHER ROUNDUP
NATIONAL WEATHER SERVICE HASTINGS NE
400 AM CDT TUE AUG 15 2017

NOTE: "FAIR" INDICATES FEW OR NO CLOUDS BELOW 12,000 FEET WITH NO
SIGNIFICANT WEATHER AND/OR OBSTRUCTIONS TO VISIBILITY.

...SOUTH CENTRAL NEBRASKA...

CITY           SKY/WX    TMP DP  RH WIND       PRES   REMARKS
GRAND ISLAND   CLOUDY    66  66 100 SE7       29.81F
HASTINGS       CLOUDY    70  66  87 SE8       29.81F
KEARNEY        PTCLDY    66  65  96 E5        29.81F
ORD            CLOUDY    68  61  78 NW13      29.87R
YORK           PTCLDY    66  64  94 SE7       29.82F
AURORA         CLOUDY    65  65  99 E7        29.82F
LEXINGTON      CLOUDY    68  66  93 E5        29.81S FOG
HOLDREGE       CLOUDY    67  64  92 SE5       29.80F
HEBRON         CLOUDY    73  70  92 S6        29.81F

...NEBRASKA PANHANDLE...

CITY           SKY/WX    TMP DP  RH WIND       PRES   REMARKS
CHADRON        CLOUDY    64  59  83 CALM      29.85R
ALLIANCE       CLOUDY    64  59  83 CALM      29.88F
SCOTTSBLUFF    LGT RAIN  64  60  87 E9        29.88F
SIDNEY         CLOUDY    64  61  90 NE3       29.91F

...WESTERN AND NORTH CENTRAL NEBRASKA...

CITY           SKY/WX    TMP DP  RH WIND       PRES   REMARKS
VALENTINE      LGT RAIN  65  61  87 S9        29.87R
AINSWORTH      RAIN      63  63 100 CALM      29.87F
ONEILL         HVY RAIN  64  64 100 NW3       29.92R
BROKEN BOW     CLOUDY    69  62  78 NE12      29.86F
IMPERIAL       CLOUDY    64  60  87 NE3       29.83F
NORTH PLATTE   CLOUDY    68  65  90 NE12      29.83F
MCCOOK         CLOUDY    69  65  86 SE3       29.80F

...EASTERN NEBRASKA...

CITY           SKY/WX    TMP DP  RH WIND       PRES   REMARKS
NORFOLK        TSTM      64  61  90 E14       29.83F FOG
SO SIOUX CITY  CLOUDY    63  62  97 E7        29.86S
TEKAMAH        CLOUDY    64  60  87 NE3       29.85F
COLUMBUS       CLOUDY    65  62  90 E10       29.84S
ALBION         CLOUDY    66  62  86 E8        29.85R
OMAHA EPPLEY   CLOUDY    69  62  78 E9        29.85F
OFFUTT AFB     CLOUDY    68  62  82 NE7       29.84F
MILLARD        MOCLDY    71  64  80 E6        29.84F
LINCOLN        CLOUDY    71  66  84 E7        29.82F
NEBRASKA CITY  CLOUDY    70  70 100 E5        29.85S
BEATRICE       CLOUDY    72  69  89 SE6       29.83S
FALLS CITY     CLOUDY    69  68  96 CALM      29.83S

...NORTHERN KANSAS...

CITY           SKY/WX    TMP DP  RH WIND       PRES   REMARKS
GOODLAND       CLOUDY    68  63  84 E5        29.86S
HILL CITY      CLOUDY    72  64  76 SW6       29.81F
NORTON         SUNNY     70  57  64 S8        29.79F
PHILLIPSBURG   CLEAR     73  63  68 CALM      29.79S
SMITH CENTER   PTCLDY    68  64  88 E6        29.81S
HAYS           PTCLDY    69  66  90 S6        29.82F
RUSSELL        PTCLDY    71  66  84 S10       29.81F
CONCORDIA      PTCLDY    73  72  96 S10       29.81F
SALINA         CLOUDY    74  71  91 S7        29.83S
TOPEKA         CLEAR     69  69 100 CALM      29.83F



USA.gov is the U.S. government's official web portal to all federal, state and local government web resources and services.